World > North America > United States > Nevada

Pizen Switch, Nevada Regional Weather

Lat: 39.00N, Lon: 119.16W
Wx Zone: NVZ001
Feedback

Pizen Switch, NV Regional Weather

Expires:201909222100;;192380
ASUS45 KREV 222010
RWRNV 
NEVADA REGIONAL WEATHER ROUNDUP
NATIONAL WEATHER SERVICE RENO NV
100 PM PDT SUN SEP 22 2019

NOTE: "FAIR" INDICATES FEW OR NO CLOUDS BELOW 12,000 FEET WITH NO
SIGNIFICANT WEATHER AND/OR OBSTRUCTIONS TO VISIBILITY.


NVZ001-003-004-222100-
WESTERN NEVADA
  
CITY           SKY/WX    TMP DP  RH WIND       PRES   REMARKS
RENO           PTSUNNY   76  29  17 CALM      30.03F                  
CARSON CITY    FAIR      75  28  17 VRB5      30.03F                  
MINDEN         FAIR      75  32  20 W8        30.05F                  
SLIDE MTN        N/A     48  32  53 W22         N/A                   
PYRAMID LAKE     N/A     66 N/A N/A N5          N/A                   
FALLON         MOSUNNY   76  31  19 CALM      30.01F                  
LOVELOCK       SUNNY     75  35  23 S12       30.02F                  
HAWTHORNE      SUNNY     75  32  20 NW10      30.00F                  
$$


SKY/WX - Weather  TMP - Temperature  DP - Dew Point  RH - Relative Humidity
WIND - Wind Direction/Speed PRES - Barometric Pressure VSB - Visibility
WCI - Wind Chill Index E13G22 Wind - East Wind 13 mph/Gusts of 22 mph